STARLINK-11081, 60405

Orbit data source: Space-Track

STARLINK-11081, 60405 is a payload satellite owned by SpaceX/Seattle (US) in LEO that was launched on Sat, 10 Aug 2024 UTC via an FALCON 9 launch vehicle from the Air Force Eastern Test Range (AFETR). Payload-class satellites include a variety of spacecraft equipped with specific instruments for various scientific and technological missions. These include communications satellites like Starlink; space stations such as the ISS; scientific satellites like the Hubble; Earth observation satellites from companies like Planet Labs, Umbra, and HawkEye 360; GPS; miniature CubeSats for education and research; and military/defense satellites.

Loading next visibility...
Identifier
60405, 2024-141H
Orbit
LEO
Country
Flag of USUS
Related business
Manufacturer
SpaceX/Seattle
Mission
Operational Commercial Communications
Bus & Motor
STARLINK V2MD, Unknown motor
Mass
960 kg wet, ~910 kg dry
Launch date (UTC)
2024-08-10 (1 year ago)
Launch vehicle
FALCON 9
Launch site
Air Force Eastern Test Range (AFETR)
Object type
Payload
Rocket body
Debris
Shape & HBR
Box + 2 Pan, 14.5 m
Radar Cross Section
36.964 m², Large (>1 m²)

Expand to show TLE details & history
Last TLE update: 2 days ago

TLE from 2 days ago
0 STARLINK-11081
1 60405U 24141H   25259.32507321 -.00000969  00000-0 -31437-5 0  9992
2 60405  53.1599 226.0583 0000723  13.8476 346.2562 15.69705511 64307
Epoch: 2025-09-16T07:48Z
TLE epoch observation values (Epoch: 2025-09-16T07:48:06.325Z)
Latitude
0.00002°
Longitude
113.51496°
Altitude
360.181 km
Speed
7.695 km/s
True Right ascension
15h 04m 13s
True Declination
0° 00' 00"
Sunlit
Object was in daylight at epoch
Visualization orbit readout
Latitude
Unknown
Longitude
Unknown
Altitude
Unknown
Speed
Unknown
Apparent Right ascension
Unknown
Apparent Declination
Unknown
Sunlit
N/A
Visualization observer readout
Local Sidereal Time
22:00:24
Azimuth
Unknown
Elevation
Unknown
Doppler factor
Unknown
Orbital elements
Apogee altitude
360.487 km
Perigee altitude
359.513 km
Semi-major axis
6,738.137 km
Eccentricity
0.00007
Inclination
53.1599°
RAAN
226.0583°
Arg. of periapsis
13.8476°
True anomaly
346.25423°
Mean anomaly
346.2562°
Eccentric anomaly
346.25522°
Mean motion
3.92404 °/min
Orbital period
91.74 mins
BSTAR
-0.0000031437
Loading maneuver chart data...
Computing Atmospheric mass density...
Loading historical data...
Loading historical data...
Loading historical data...
Loading historical data...
Loading historical data...
Loading historical data...
Loading historical data...

Documentation

Showing up to 5 results
|